Location: Unspecified
(0.0000°N, 0.0000°E)
Time: 16:17:12
(UTC+00:00)

AO-73 - Visible Passes

Search period start: 13 December 2019 00:00
Search period end: 23 December 2019 00:00
Orbit: 582 x 664 km, 97.6° (Epoch: 13 December)

Date Brightness Start Highest point End Pass type
(mag) Time Alt. Az. Time Alt. Az. Time Alt. Az.
14 Dec ? 18:18:31 10° S 18:22:56 49° WSW 18:27:17 10° NNW visible
15 Dec ? 18:37:10 10° SSW 18:41:03 27° WSW 18:44:52 10° NW visible
16 Dec ? 05:11:29 10° ENE 05:13:59 16° ESE 05:16:30 10° SE visible
16 Dec ? 18:56:26 10° SW 18:59:09 16° WSW 19:01:50 10° WNW visible
20 Dec ? 18:31:42 10° SSW 18:35:43 31° WSW 18:39:40 10° NW visible
21 Dec ? 05:06:29 10° ENE 05:08:35 14° ESE 05:10:43 10° SE visible
21 Dec ? 18:50:46 10° SW 18:53:49 18° WSW 18:56:49 10° WNW visible
22 Dec ? 05:23:16 10° NE 05:26:40 25° ESE 05:30:08 10° SSE visible
